Flag for Canada Weather past 2 weeks in Saint John, New Brunswick, Canada

Now
52 °F

Fog.


Feels Like: 49 °F
Forecast: 49 / 56 °F
Wind: 8 mph from Northeast

Location: Saint John

Current Time: Sep 30, 2014 at 4:34:34 PM

Latest Report: Sep 30, 2014 at 4:00 PM


Visibility: 4 mi

Pressure: 30.08 "Hg

Humidity: 100%

Dew point: 52 °F

Location of Saint JohnLocation

Historic Weather in Saint John — Graph

°F

Saint John temperature yesterday

Maximum temperature yesterday: 57 °F (at 12:00 AM)
Minimum temperature yesterday: 48 °F (at 10:00 PM)
Average temperature yesterday: 54 °F

Past Weeks' High & Low Weather Summary

 TemperatureHumidityPressure
High75 °F (Sep 21, 4:00 PM)100% (Sep 16, 12:00 AM)30.65 "Hg (Sep 16, 12:00 AM)
Low28 °F (Sep 19, 11:00 PM)24% (Sep 19, 6:00 PM)29.40 "Hg (Sep 22, 5:00 AM)
Average53 °F80%30.10 "Hg
* Reported Sep 15 3:00 PM — Sep 30 3:00 PM, Saint John, Weather by CustomWeather, © 2014

Note: Actual official high and low records may vary slightly from our data, if they occured in-between our weather recording intervals... More about our weather records

Advertising

Saint John weather history for previous 24 hours

 ConditionsComfort  
Time TempWeatherWind HumidityBarometerVisibility
3:00 PM
Sep 30
50 °FDrizzle. Fog.9 mph100%30.08 "Hg2 mi
2:00 PM50 °FDrizzle. Fog.7 mph100%30.09 "Hg2 mi
11:00 AM48 °FLight rain. Fog.6 mph100%30.11 "Hg2 mi
10:00 AM48 °FLight rain. Fog.6 mph100%30.11 "Hg2 mi
9:00 AM48 °FLight rain. Fog.3 mph100%30.11 "Hg2 mi
8:00 AM48 °FLight rain. Fog.8 mph100%30.12 "Hg2 mi
7:00 AM48 °FLight rain. Fog.7 mph100%30.12 "Hg5 mi
6:00 AM48 °FLight rain. Fog.5 mph100%30.11 "Hg3 mi
5:00 AM46 °FLight rain. Fog.6 mph100%30.11 "Hg3 mi
4:00 AM46 °FDrizzle. Fog.5 mph100%30.14 "Hg3 mi
3:00 AM46 °FDrizzle. Fog.9 mph100%30.14 "Hg3 mi
2:00 AM46 °FDrizzle. Fog.8 mph100%30.15 "Hg3 mi
1:00 AM48 °FFog.9 mph87%30.16 "Hg5 mi
12:00 AM50 °FOvercast.13 mph76%30.16 "Hg15 mi
11:00 PM
Sep 29
48 °FOvercast.8 mph82%30.17 "Hg15 mi
10:00 PM48 °FOvercast.9 mph76%30.18 "Hg15 mi
9:00 PM50 °FOvercast.13 mph71%30.17 "Hg15 mi
8:00 PM50 °FOvercast.13 mph71%30.19 "Hg15 mi
7:00 PM52 °FOvercast.13 mph67%30.17 "Hg15 mi
6:00 PM52 °FOvercast.12 mph72%30.16 "Hg15 mi
5:00 PM54 °FOvercast.10 mph63%30.15 "Hg15 mi
4:00 PM54 °FMostly cloudy.12 mph72%30.14 "Hg15 mi
Weather by CustomWeather, © 2014

See weather overviewHow to use our weather pages